Location: Observatorio Ernesto Juarez Davis
(29.2175°N, 110.7606°W)
Time: 14:06:26
(UTC-07:00)

Hubble Space Telescope - Pass Details

Date: 28 July 2019
Orbit: 536 x 540 km, 28.5° (Epoch: 18 August)

Event Time Altitude Azimuth Distance (km) Brightness Sun altitude
Exits shadow 03:06:42 11° 111° (ESE) 1,739 3.6 -28.7°
Drops below altitude 10° 03:06:50 10° 110° (ESE) 1,777 3.6 -28.7°
Sets 03:09:36 0° 92° (E) 2,675 4.9 -28.2°
